This is the latest recevied weather packets stored in our database for station/object KD8DNS. If no packets are shown the sender has not sent any weather packets the latest 10 day(s).
| Time | Temp. | Humidity | Pressure | Rain* | Wind** | Luminosity | Snow |
|---|---|---|---|---|---|---|---|
| 1788439863 | 26.11° C | 83% | 1021 hPa | 0 mm | - | 160 W/m² | - |
| 1788439563 | 25.56° C | 85% | 1020.6 hPa | 0 mm | - | 149 W/m² | - |
| 1788439262 | 25° C | 86% | 1020.9 hPa | 0 mm | - | 126 W/m² | - |
| 1788438962 | 25° C | 87% | 1020.6 hPa | 0 mm | - | 119 W/m² | - |
| 1788438660 | 24.44° C | 88% | 1020.6 hPa | 0 mm | - | 109 W/m² | - |
| 1788438355 | 23.89° C | 90% | 1020.9 hPa | 0 mm | - | 97 W/m² | - |
| 1788438055 | 23.89° C | 91% | 1020.4 hPa | 0 mm | - | 40 W/m² | - |
| 1788437749 | 23.33° C | 92% | 1020.6 hPa | 0 mm | - | 38 W/m² | - |
| 1788437445 | 23.33° C | 94% | 1020.4 hPa | 0 mm | - | 35 W/m² | - |
| 1788437144 | 23.33° C | 94% | 1020.5 hPa | 0 mm | - | 32 W/m² | - |
| 1788436839 | 22.78° C | 95% | 1020.9 hPa | 0 mm | - | 30 W/m² | - |
| 1788436537 | 22.78° C | 95% | 1020.8 hPa | 0 mm | - | 28 W/m² | - |
| 1788436232 | 22.78° C | 95% | 1020.9 hPa | 0 mm | - | 24 W/m² | - |
| 1788435927 | 22.78° C | 95% | 1020.6 hPa | 0 mm | - | 21 W/m² | - |
| 1788435623 | 22.78° C | 95% | 1020.4 hPa | 0 mm | - | 18 W/m² | - |
| 1788435318 | 22.78° C | 95% | 1020.3 hPa | 0 mm | - | 16 W/m² | - |
| 1788435014 | 22.78° C | 95% | 1020.2 hPa | 0 mm | - | 12 W/m² | - |
| 1788434709 | 22.78° C | 95% | 1020.3 hPa | 0 mm | - | 10 W/m² | - |
| 1788434409 | 22.78° C | 95% | 1020.3 hPa | 0 mm | - | 7 W/m² | - |
| 1788434103 | 22.78° C | 95% | 1020.2 hPa | 0 mm | - | 4 W/m² | - |
| 1788433800 | 22.78° C | 95% | 1020.2 hPa | 0 mm | - | 3 W/m² | - |
| 1788433494 | 22.78° C | 95% | 1020.2 hPa | 0 mm | - | 0 W/m² | - |
| 1788433189 | 22.78° C | 95% | 1020.2 hPa | 0 mm | - | 0 W/m² | - |
| 1788432884 | 22.78° C | 95% | 1020.1 hPa | 0 mm | - | 0 W/m² | - |
| 1788432584 | 22.78° C | 95% | 1020 hPa | 0 mm | - | 0 W/m² | - |
* Rain latest hour (hover to see other rain measurements)
** Current wind speed in m/s (hover to see current wind gust speed)